Location: Heidgraben
(53.7081°N, 9.6576°E)
Time: 03:33:51
(UTC+00:00)

SL-8 Rocket - Pass Details

Date: 05 July 2020
Orbit: 957 x 990 km, 82.9° (Epoch: 06 August)

Event Time Altitude Azimuth Distance (km) Brightness Sun altitude
Exits shadow 23:31:00 15° 207° (SSW) 2,327 5.4 -13.6°
Maximum altitude 23:36:04 62° 285° (WNW) 1,081 4.3 -13.6°
Drops below altitude 10° 23:42:12 10° 6° (N) 2,704 7.8 -13.6°
Sets 23:44:45 0° 10° (N) 3,653 9.0 -13.5°
